When you browse on this site, cookies collect data to enhance your experience and personalize the content and advertising you see.
Visit our Privacy Policy to learn more. By continuing to use the site, you agree to this use of cookies and data.

Hourly Weather Rouen

Today, 10 July, Friday

Time Temperature Precipitation Wind Pressure Humidity
00:00 +17°C° 0 mm 4 mps 753 mmHg 84%
01:00 +17°C° 0 mm 4 mps 753 mmHg 86%
02:00 +17°C° 0 mm 4 mps 753 mmHg 88%
03:00 +16°C° 0 mm 5 mps 753 mmHg 90%
04:00 +16°C° 0 mm 5 mps 753 mmHg 90%
05:00 +16°C° 0 mm 5 mps 753 mmHg 90%
06:00 +16°C° 0 mm 5 mps 754 mmHg 89%
07:00 +16°C° 0.1 mm 5 mps 754 mmHg 85%
08:00 +17°C° 0.1 mm 5 mps 755 mmHg 80%
09:00 +17°C° 0.1 mm 5 mps 755 mmHg 76%
10:00 +19°C° 0.1 mm 5 mps 756 mmHg 72%
11:00 +19°C° 0.1 mm 5 mps 756 mmHg 67%
12:00 +20°C° 0.1 mm 5 mps 756 mmHg 63%
13:00 +20°C° 0 mm 5 mps 757 mmHg 61%
14:00 +20°C° 0 mm 5 mps 757 mmHg 60%
15:00 +20°C° 0 mm 5 mps 757 mmHg 59%
16:00 +19°C° 0 mm 5 mps 757 mmHg 60%
17:00 +18°C° 0 mm 4 mps 757 mmHg 62%
18:00 +18°C° 0 mm 4 mps 757 mmHg 63%
19:00 +15°C° 0 mm 4 mps 758 mmHg 71%
20:00 +13°C° 0 mm 3 mps 758 mmHg 78%
21:00 +12°C° 0 mm 2 mps 759 mmHg 85%
22:00 +12°C° 0 mm 2 mps 759 mmHg 86%
23:00 +12°C° 0 mm 2 mps 760 mmHg 87%

Tomorrow, 11 July, Saturday

Time Temperature Precipitation Wind Pressure Humidity
00:00 +11°C° 0 mm 1 mps 760 mmHg 88%
01:00 +10°C° 0 mm 2 mps 760 mmHg 89%
02:00 +10°C° 0 mm 2 mps 760 mmHg 89%
03:00 +10°C° 0 mm 2 mps 760 mmHg 90%
04:00 +12°C° 0 mm 2 mps 760 mmHg 87%
05:00 +13°C° 0 mm 2 mps 760 mmHg 85%
06:00 +14°C° 0 mm 2 mps 761 mmHg 82%
07:00 +15°C° 0 mm 2 mps 761 mmHg 75%
08:00 +17°C° 0 mm 2 mps 762 mmHg 67%
09:00 +18°C° 0 mm 3 mps 762 mmHg 60%
10:00 +19°C° 0 mm 3 mps 762 mmHg 56%
11:00 +20°C° 0 mm 4 mps 762 mmHg 53%
12:00 +21°C° 0 mm 4 mps 762 mmHg 50%
13:00 +20°C° 0 mm 4 mps 762 mmHg 51%
14:00 +20°C° 0 mm 4 mps 762 mmHg 52%
15:00 +20°C° 0 mm 5 mps 762 mmHg 52%
16:00 +20°C° 0 mm 4 mps 762 mmHg 56%
17:00 +19°C° 0 mm 4 mps 762 mmHg 60%
18:00 +18°C° 0 mm 3 mps 762 mmHg 64%
19:00 +16°C° 0 mm 3 mps 762 mmHg 72%
20:00 +14°C° 0 mm 2 mps 763 mmHg 80%
21:00 +12°C° 0 mm 2 mps 763 mmHg 88%
22:00 +12°C° 0 mm 2 mps 763 mmHg 89%
23:00 +12°C° 0 mm 1 mps 763 mmHg 90%

Day after tomorrow, 12 July, Sunday

Time Temperature Precipitation Wind Pressure Humidity
00:00 +11°C° 0 mm 1 mps 763 mmHg 91%
01:00 +11°C° 0 mm 1 mps 763 mmHg 91%
02:00 +11°C° 0 mm 1 mps 762 mmHg 91%
03:00 +11°C° 0 mm 1 mps 762 mmHg 91%
04:00 +11°C° 0 mm 1 mps 763 mmHg 89%
05:00 +12°C° 0 mm 1 mps 763 mmHg 86%
06:00 +13°C° 0 mm 2 mps 763 mmHg 83%
07:00 +15°C° 0 mm 2 mps 763 mmHg 75%
08:00 +17°C° 0 mm 3 mps 763 mmHg 66%
09:00 +19°C° 0 mm 4 mps 763 mmHg 58%
10:00 +20°C° 0 mm 4 mps 763 mmHg 55%
11:00 +21°C° 0 mm 4 mps 763 mmHg 51%
12:00 +22°C° 0 mm 4 mps 763 mmHg 48%
13:00 +22°C° 0 mm 4 mps 763 mmHg 49%
14:00 +22°C° 0 mm 4 mps 763 mmHg 50%
15:00 +22°C° 0 mm 4 mps 762 mmHg 51%
16:00 +21°C° 0 mm 4 mps 762 mmHg 56%
17:00 +21°C° 0 mm 4 mps 762 mmHg 60%
18:00 +20°C° 0 mm 4 mps 762 mmHg 65%
19:00 +18°C° 0 mm 4 mps 762 mmHg 70%
20:00 +15°C° 0 mm 4 mps 762 mmHg 75%
21:00 +14°C° 0 mm 4 mps 762 mmHg 80%
22:00 +13°C° 0 mm 4 mps 762 mmHg 83%
23:00 +12°C° 0 mm 3 mps 762 mmHg 85%

13 July, Monday

Time Temperature Precipitation Wind Pressure Humidity
00:00 +11°C° 0 mm 3 mps 762 mmHg 88%
01:00 +11°C° 0 mm 3 mps 762 mmHg 88%
02:00 +10°C° 0 mm 3 mps 762 mmHg 89%
03:00 +10°C° 0 mm 2 mps 761 mmHg 90%
04:00 +12°C° 0 mm 2 mps 761 mmHg 87%
05:00 +13°C° 0 mm 2 mps 761 mmHg 84%
06:00 +14°C° 0 mm 2 mps 761 mmHg 81%
07:00 +16°C° 0 mm 2 mps 761 mmHg 73%
08:00 +18°C° 0 mm 3 mps 761 mmHg 66%
09:00 +20°C° 0 mm 3 mps 761 mmHg 59%
10:00 +21°C° 0 mm 3 mps 761 mmHg 55%
11:00 +22°C° 0 mm 3 mps 761 mmHg 52%
12:00 +24°C° 0 mm 3 mps 760 mmHg 48%
13:00 +24°C° 0 mm 3 mps 760 mmHg 48%
14:00 +24°C° 0 mm 3 mps 760 mmHg 48%
15:00 +24°C° 0 mm 3 mps 759 mmHg 49%
16:00 +22°C° 0 mm 4 mps 759 mmHg 54%
17:00 +21°C° 0 mm 4 mps 759 mmHg 59%
18:00 +19°C° 0 mm 4 mps 759 mmHg 64%
19:00 +18°C° 0 mm 3 mps 759 mmHg 68%
20:00 +16°C° 0 mm 3 mps 759 mmHg 73%
21:00 +14°C° 0 mm 2 mps 759 mmHg 77%
22:00 +14°C° 0 mm 2 mps 759 mmHg 80%
23:00 +14°C° 0 mm 2 mps 759 mmHg 82%

14 July, Tuesday

Time Temperature Precipitation Wind Pressure Humidity
00:00 +14°C° 0 mm 1 mps 758 mmHg 84%
01:00 +13°C° 0 mm 1 mps 758 mmHg 85%
02:00 +13°C° 0 mm 1 mps 758 mmHg 85%
03:00 +13°C° 0 mm 1 mps 757 mmHg 86%
04:00 +14°C° 0 mm 1 mps 757 mmHg 83%
05:00 +15°C° 0 mm 1 mps 757 mmHg 81%
06:00 +15°C° 0 mm 1 mps 757 mmHg 78%
07:00 +16°C° 0 mm 1 mps 757 mmHg 77%
08:00 +16°C° 0 mm 1 mps 757 mmHg 76%
09:00 +17°C° 0 mm 2 mps 757 mmHg 75%
10:00 +18°C° 0 mm 2 mps 757 mmHg 69%
11:00 +20°C° 0 mm 2 mps 757 mmHg 63%
12:00 +21°C° 0 mm 2 mps 756 mmHg 57%
13:00 +21°C° 0 mm 3 mps 756 mmHg 58%
14:00 +20°C° 0 mm 4 mps 756 mmHg 59%
15:00 +20°C° 0 mm 4 mps 756 mmHg 60%
16:00 +20°C° 0 mm 4 mps 755 mmHg 64%
17:00 +19°C° 0 mm 3 mps 755 mmHg 68%
18:00 +19°C° 0 mm 3 mps 755 mmHg 72%
19:00 +18°C° 0 mm 3 mps 755 mmHg 79%
20:00 +16°C° 0 mm 2 mps 755 mmHg 85%
21:00 +15°C° 0 mm 2 mps 755 mmHg 92%
22:00 +15°C° 0 mm 2 mps 755 mmHg 93%
23:00 +14°C° 0 mm 2 mps 755 mmHg 94%

15 July, Wednesday

Time Temperature Precipitation Wind Pressure Humidity
00:00 +14°C° 0 mm 2 mps 755 mmHg 95%
01:00 +13°C° 0 mm 2 mps 755 mmHg 95%
02:00 +13°C° 0 mm 2 mps 755 mmHg 96%
03:00 +12°C° 0 mm 2 mps 755 mmHg 96%
04:00 +12°C° 0 mm 3 mps 755 mmHg 94%
05:00 +13°C° 0 mm 3 mps 755 mmHg 92%
06:00 +14°C° 0 mm 3 mps 756 mmHg 90%
07:00 +15°C° 0 mm 4 mps 756 mmHg 84%
08:00 +17°C° 0 mm 4 mps 756 mmHg 78%
09:00 +19°C° 0 mm 4 mps 756 mmHg 72%
10:00 +19°C° 0 mm 4 mps 756 mmHg 69%
11:00 +20°C° 0 mm 5 mps 756 mmHg 66%
12:00 +20°C° 0 mm 5 mps 756 mmHg 63%
13:00 +21°C° 0 mm 5 mps 756 mmHg 64%
14:00 +21°C° 0 mm 5 mps 756 mmHg 64%
15:00 +21°C° 0 mm 5 mps 756 mmHg 64%
16:00 +20°C° 0 mm 5 mps 756 mmHg 67%
17:00 +20°C° 0 mm 4 mps 756 mmHg 70%
18:00 +19°C° 0 mm 4 mps 756 mmHg 73%
19:00 +18°C° 0 mm 4 mps 757 mmHg 78%
20:00 +17°C° 0 mm 3 mps 757 mmHg 84%
21:00 +15°C° 0 mm 2 mps 757 mmHg 90%
22:00 +15°C° 0 mm 2 mps 757 mmHg 92%
23:00 +15°C° 0 mm 2 mps 758 mmHg 94%
Show more